Yeppoon Observation History
Time Wind Speed Temp Pressure Rel. Hum Rain
03/05:30am W 6-8 kts 8.5°c 1021.8 hPa 69% 0.0mm
03/05:00am W 8-10 kts 8.9°c 1021.4 hPa 66% 0.0mm
03/04:30am W 7-10 kts 9.8°c 1021.2 hPa 60% 0.0mm
03/04:00am WSW 6-7 kts 11.3°c 1021.2 hPa 53% 0.0mm
03/03:30am WSW 4-5 kts 11.4°c 1021.3 hPa 51% 0.0mm
03/03:00am WNW 5-8 kts 12.6°c 1021.2 hPa 47% 0.0mm
03/02:30am W 5-7 kts 13.0°c 1021.2 hPa 43% 0.0mm
03/02:00am W 6-8 kts 12.7°c 1021.2 hPa 47% 0.0mm
03/01:30am W 4-6 kts 11.2°c 1021.4 hPa 60% 0.0mm
03/01:00am WNW 6-8 kts 11.1°c 1021.7 hPa 58% 0.0mm
03/12:30am WNW 5-6 kts 10.8°c 1021.7 hPa 63% 0.0mm
03/12:00am WNW 5-6 kts 10.7°c 1022.0 hPa 65% 0.0mm
Time Wind Speed Temp Pressure Rel. Hum Rain
02/11:30pm WNW 5-7 kts 10.9°c 1022.2 hPa 69% 0.0mm
02/11:00pm WNW 5-7 kts 11.6°c 1022.3 hPa 62% 0.0mm
02/10:30pm W 5-7 kts 12.2°c 1022.1 hPa 63% 0.0mm
02/10:00pm W 6-7 kts 12.6°c 1022.1 hPa 62% 0.0mm
02/09:30pm W 3-7 kts 12.8°c 1022.1 hPa 61% 0.0mm
02/09:00pm W 4-6 kts 13.7°c 1022.0 hPa 60% 0.0mm
02/08:30pm W 7 kts 14.1°c 1021.6 hPa 58% 0.0mm
02/08:00pm W 5-7 kts 15.0°c 1021.3 hPa 58% 0.0mm
02/07:30pm W 4-6 kts 14.5°c 1021.0 hPa 65% 0.0mm
02/07:00pm SW 4-5 kts 16.2°c 1020.6 hPa 58% 0.0mm
02/06:30pm SW 1-4 kts 16.5°c 1020.1 hPa 60% 0.0mm
02/06:00pm SW 5-7 kts 17.8°c 1019.6 hPa 55% 0.0mm
02/05:30pm SSW 4 kts 19.7°c 1019.3 hPa 43% 0.0mm
02/05:00pm SSW 4-6 kts 21.3°c 1019.0 hPa 39% 0.0mm
02/04:30pm SSW 6-8 kts 23.0°c 1018.6 hPa 34% 0.0mm
02/04:00pm SSW 6-8 kts 23.7°c 1018.3 hPa 34% 0.0mm
02/03:30pm SSW 7-11 kts 24.0°c 1018.4 hPa 35% 0.0mm
02/03:00pm ENE 5-7 kts 23.6°c 1018.4 hPa 53% 0.0mm
02/02:30pm ENE 7-9 kts 22.8°c 1018.2 hPa 53% 0.0mm
02/02:00pm E 8-10 kts 22.9°c 1018.4 hPa 51% 0.0mm
02/01:30pm ENE 7-9 kts 22.9°c 1018.4 hPa 51% 0.0mm
02/01:00pm ENE 7-9 kts 22.9°c 1018.6 hPa 49% 0.0mm
02/12:30pm E 7-9 kts 23.6°c 1018.9 hPa 47% 0.0mm
02/12:00pm WSW 6-8 kts 23.9°c 1019.3 hPa 35% 0.0mm
02/11:30am S 5-9 kts 23.9°c 1019.6 hPa 38% 0.0mm
02/11:00am SSW 5-8 kts 23.1°c 1019.9 hPa 41% 0.0mm
02/10:30am SSW 5-8 kts 22.7°c 1020.1 hPa 37% 0.0mm
02/10:00am SSW 6-9 kts 22.2°c 1020.1 hPa 41% 0.0mm
02/09:30am SSW 6-8 kts 21.7°c 1020.2 hPa 46% 0.0mm
02/09:00am SW 5-8 kts 20.7°c 1020.1 hPa 51% 0.0mm
02/08:30am WSW 6-8 kts 19.3°c 1020.0 hPa 61% 0.0mm
02/08:00am WSW 5-7 kts 18.0°c 1020.1 hPa 80% 0.0mm
02/07:30am WSW 5-7 kts 17.5°c 1019.7 hPa 88% 0.0mm
02/07:00am WSW 5-8 kts 17.0°c 1019.3 hPa 93% 0.0mm
02/06:30am WSW 5-6 kts 17.3°c 1018.9 hPa 94% 0.0mm
02/06:00am W 5-7 kts 17.9°c 1018.3 hPa 93% 0.0mm
02/05:30am WSW 6-9 kts 17.5°c 1017.8 hPa 94% 0.0mm
02/05:00am WSW 6-9 kts 16.9°c 1017.5 hPa 93% 0.0mm
02/04:30am NW 3-5 kts 16.5°c 1016.9 hPa 93% 0.0mm
02/04:00am NW 5-6 kts 16.7°c 1016.9 hPa 93% 0.0mm
02/03:30am NW 3-4 kts 16.6°c 1016.8 hPa 93% 0.0mm
02/03:00am NW 5-7 kts 16.8°c 1016.9 hPa 95% 0.0mm
02/02:30am NW 4-5 kts 16.4°c 1017.0 hPa 94% 0.0mm
02/02:00am NW 4-5 kts 16.6°c 1017.1 hPa 94% 0.0mm
02/01:30am NW 4-5 kts 16.8°c 1017.1 hPa 93% 0.0mm
02/01:00am NW 4-5 kts 17.1°c 1017.1 hPa 92% 0.0mm
02/12:30am NW 4-5 kts 17.1°c 1017.2 hPa 91% 0.0mm
02/12:00am NW 4-6 kts 17.1°c 1017.3 hPa 92% 0.0mm
Time Wind Speed Temp Pressure Rel. Hum Rain
01/11:30pm NNW 6-7 kts 16.7°c 1017.4 hPa 93% 0.0mm
01/11:00pm NNW 4-5 kts 16.9°c 1017.5 hPa 92% 0.0mm
01/10:30pm N 4-5 kts 16.9°c 1017.5 hPa 92% 0.0mm
01/10:00pm N 4-6 kts 17.6°c 1017.5 hPa 91% 0.0mm
01/09:30pm N 3-5 kts 18.0°c 1017.5 hPa 87% 0.0mm
01/09:00pm N 5-7 kts 19.8°c 1017.5 hPa 87% 0.0mm
01/08:30pm N 3-5 kts 19.8°c 1017.4 hPa 83% 0.0mm
01/08:00pm N 6-9 kts 20.5°c 1017.1 hPa 83% 0.0mm
01/07:30pm N 7-9 kts 20.6°c 1017.2 hPa 85% 0.0mm
01/07:00pm N 11-13 kts 21.2°c 1016.9 hPa 84% 0.0mm
01/06:30pm N 10-13 kts 21.2°c 1016.7 hPa 83% 0.0mm
01/06:00pm N 11-13 kts 21.3°c 1016.3 hPa 83% 0.0mm
01/05:30pm N 11-14 kts 21.7°c 1016.1 hPa 83% 0.0mm
01/05:00pm NNE 13-14 kts 21.9°c 1016.0 hPa 83% 0.0mm
01/04:30pm NNE 13-15 kts 22.1°c 1015.8 hPa 81% 0.0mm
01/04:00pm NNE 13-15 kts 22.2°c 1015.6 hPa 79% 0.0mm
01/03:30pm NNE 12-14 kts 22.4°c 1015.7 hPa 78% 0.0mm
01/03:00pm NNE 12-13 kts 22.8°c 1015.7 hPa 78% 0.0mm
01/02:30pm NNE 8-11 kts 23.0°c 1015.7 hPa 78% 0.0mm
01/02:00pm NE 7-9 kts 23.1°c 1016.0 hPa 76% 0.0mm
01/01:30pm ENE 7-9 kts 22.8°c 1016.2 hPa 77% 0.0mm
01/01:00pm ENE 9-10 kts 22.4°c 1016.6 hPa 80% 0.0mm
01/12:30pm E 7-8 kts 22.3°c 1016.9 hPa 79% 0.0mm
01/12:00pm E 7-8 kts 22.5°c 1017.4 hPa 79% 0.0mm
01/11:30am E 8-9 kts 22.5°c 1017.8 hPa 81% 0.0mm
01/11:00am WNW 7-8 kts 22.3°c 1018.3 hPa 81% 0.0mm
01/10:30am W 6-7 kts 22.1°c 1018.7 hPa 82% 0.0mm
01/10:00am W 3-5 kts 22.3°c 1018.9 hPa 84% 0.0mm
01/09:30am W 3-5 kts 20.6°c 1019.3 hPa 93% 0.0mm
01/09:00am W 4-5 kts 19.5°c 1019.3 hPa 100% 3.6mm
01/08:30am W 4-5 kts 18.2°c 1019.3 hPa 100% 3.6mm
01/08:00am W 4-6 kts 16.8°c 1019.2 hPa 100% 3.6mm
01/07:30am W 5-6 kts 15.4°c 1019.0 hPa 100% 3.6mm
01/07:00am W 5-7 kts 15.4°c 1018.8 hPa 100% 3.4mm
01/06:30am W 6-7 kts 15.9°c 1018.6 hPa 100% 3.4mm
01/06:00am W 5-7 kts 16.0°c 1018.3 hPa 100% 3.4mm
01/05:30am W 6-7 kts 16.1°c 1018.0 hPa 100% 3.4mm
01/05:00am W 6-8 kts 16.5°c 1017.8 hPa 99% 3.4mm
01/04:30am W 6-7 kts 16.8°c 1017.8 hPa 99% 3.4mm
01/04:00am W 5-7 kts 16.8°c 1017.8 hPa 99% 3.4mm
01/03:30am W 6-8 kts 16.8°c 1018.1 hPa 98% 2.6mm
01/03:00am W 6-7 kts 16.9°c 1018.0 hPa 98% 2.2mm
01/02:30am W 4-5 kts 17.4°c 1018.1 hPa 98% 0.6mm
01/02:00am W 6-7 kts 17.6°c 1018.2 hPa 98% 0.4mm
01/01:30am E 7-8 kts 17.0°c 1018.5 hPa 97% 0.0mm
01/01:00am E 6-7 kts 16.3°c 1018.8 hPa 96% 0.0mm
01/12:30am E 7 kts 16.5°c 1018.8 hPa 96% 0.0mm
01/12:00am E 6-7 kts 16.2°c 1018.9 hPa 96% 0.0mm